| time (UTC) | temp C | wind direction | speed KPH | gust KPH | rain 1hr cm | rain 24hr cm | rain mn cm | humidity % | barometer mb |
| 20260502180641 | 8 | 304 | 8.0 | 12.9 | 0.00 | 0.00 | 0.00 | 54 | 1013.1 |
| 20260502180138 | 8 | 304 | 8.0 | 12.9 | 0.00 | 0.00 | 0.00 | 54 | 1013.1 |
| 20260502164049 | 7 | 266 | 14.5 | 16.1 | 0.00 | 0.00 | 0.00 | 57 | 1014.1 |
| 20260502163545 | 7 | 287 | 12.9 | 16.1 | 0.00 | 0.00 | 0.00 | 58 | 1014.1 |
| 20260502163042 | 7 | 265 | 9.7 | 16.1 | 0.00 | 0.00 | 0.00 | 59 | 1014.1 |
| 20260502162539 | 7 | 274 | 20.9 | 27.4 | 0.00 | 0.00 | 0.00 | 58 | 1014.5 |
| 20260502162036 | 7 | 275 | 16.1 | 24.1 | 0.00 | 0.00 | 0.00 | 58 | 1014.1 |
| 20260502161533 | 7 | 292 | 9.7 | 12.9 | 0.00 | 0.00 | 0.00 | 57 | 1014.1 |
| 20260502161031 | 7 | 277 | 17.7 | 20.9 | 0.00 | 0.00 | 0.00 | 55 | 1014.5 |
| 20260502160528 | 7 | 276 | 14.5 | 20.9 | 0.00 | 0.00 | 0.00 | 57 | 1014.5 |
| 20260502151929 | 7 | 332 | 14.5 | 16.1 | 0.00 | 0.00 | 0.00 | 57 | 1014.8 |
| 20260502151426 | 7 | 284 | 27.4 | 37.0 | 0.00 | 0.00 | 0.00 | 56 | 1015.1 |
| 20260502150923 | 7 | 277 | 24.1 | 27.4 | 0.00 | 0.00 | 0.00 | 55 | 1015.1 |
| 20260502150420 | 7 | 287 | 25.7 | 32.2 | 0.00 | 0.00 | 0.00 | 56 | 1015.1 |
| 20260502130306 | 5 | 258 | 11.3 | 16.1 | 0.00 | 0.00 | 0.00 | 57 | 1017.2 |
| 20260502123751 | 5 | 253 | 12.9 | 16.1 | 0.00 | 0.00 | 0.00 | 57 | 1017.2 |
| 20260502123248 | 5 | 304 | 11.3 | 16.1 | 0.00 | 0.00 | 0.00 | 58 | 1017.5 |
| 20260502122745 | 5 | 244 | 14.5 | 16.1 | 0.00 | 0.00 | 0.00 | 57 | 1017.5 |
| 20260502122241 | 5 | 267 | 16.1 | 20.9 | 0.00 | 0.00 | 0.00 | 58 | 1017.5 |
| 20260502121739 | 5 | 287 | 9.7 | 12.9 | 0.00 | 0.00 | 0.00 | 58 | 1017.5 |
| 20260502121237 | 5 | 252 | 19.3 | 24.1 | 0.00 | 0.00 | 0.00 | 58 | 1017.5 |
| 20260502120733 | 5 | 307 | 9.7 | 12.9 | 0.00 | 0.00 | 0.00 | 58 | 1017.5 |
| 20260502120230 | 5 | 260 | 9.7 | 12.9 | 0.00 | 0.00 | 0.00 | 58 | 1017.5 |
| 20260502115728 | 4 | 247 | 8.0 | 12.9 | 0.00 | 0.00 | 0.00 | 55 | 1017.5 |
| 20260502115224 | 4 | 199 | 12.9 | 16.1 | 0.00 | 0.00 | 0.00 | 56 | 1017.8 |
| 20260502114720 | 4 | 250 | 14.5 | 20.9 | 0.00 | 0.00 | 0.00 | 57 | 1017.8 |
| 20260502114218 | 4 | 231 | 8.0 | 12.9 | 0.00 | 0.00 | 0.00 | 55 | 1017.8 |
| 20260502113715 | 4 | 240 | 9.7 | 12.9 | 0.00 | 0.00 | 0.00 | 54 | 1017.8 |
| 20260502113213 | 4 | 243 | 9.7 | 12.9 | 0.00 | 0.00 | 0.00 | 56 | 1017.8 |
| 20260502112710 | 4 | 204 | 9.7 | 12.9 | 0.00 | 0.00 | 0.00 | 57 | 1017.8 |
| 20260502112208 | 4 | 229 | 9.7 | 12.9 | 0.00 | 0.00 | 0.00 | 55 | 1017.8 |
| 20260502111705 | 4 | 216 | 11.3 | 12.9 | 0.00 | 0.00 | 0.00 | 55 | 1018.2 |
| 20260502111202 | 4 | 233 | 19.3 | 24.1 | 0.00 | 0.00 | 0.00 | 54 | 1018.2 |
| 20260502110700 | 4 | 260 | 9.7 | 12.9 | 0.00 | 0.00 | 0.00 | 56 | 1018.2 |
| 20260502110157 | 4 | 258 | 14.5 | 16.1 | 0.00 | 0.00 | 0.00 | 55 | 1018.2 |
| 20260502105654 | 4 | 277 | 12.9 | 16.1 | 0.00 | 0.00 | 0.00 | 54 | 1018.2 |
| 20260502105151 | 4 | 294 | 14.5 | 16.1 | 0.00 | 0.00 | 0.00 | 54 | 1018.2 |
| 20260502104648 | 4 | 274 | 12.9 | 16.1 | 0.00 | 0.00 | 0.00 | 53 | 1018.2 |
| 20260502104146 | 4 | 253 | 14.5 | 16.1 | 0.00 | 0.00 | 0.00 | 53 | 1018.5 |
| 20260502103643 | 4 | 256 | 14.5 | 16.1 | 0.00 | 0.00 | 0.00 | 53 | 1018.5 |
| 20260502103141 | 4 | 296 | 12.9 | 16.1 | 0.00 | 0.00 | 0.00 | 53 | 1018.2 |
| 20260502102638 | 4 | 243 | 12.9 | 16.1 | 0.00 | 0.00 | 0.00 | 50 | 1018.2 |
| 20260502102134 | 4 | 222 | 14.5 | 20.9 | 0.00 | 0.00 | 0.00 | 51 | 1018.5 |
| 20260502101632 | 4 | 277 | 9.7 | 12.9 | 0.00 | 0.00 | 0.00 | 52 | 1018.2 |
| 20260502101131 | 4 | 256 | 16.1 | 20.9 | 0.00 | 0.00 | 0.00 | 53 | 1018.5 |
| 20260502100629 | 4 | 263 | 16.1 | 20.9 | 0.00 | 0.00 | 0.00 | 53 | 1018.5 |
| 20260502100127 | 4 | 281 | 9.7 | 12.9 | 0.00 | 0.00 | 0.00 | 53 | 1018.5 |
| 20260502091101 | 3 | 228 | 4.8 | 8.0 | 0.00 | 0.00 | 0.00 | 54 | 1018.9 |
| 20260502090558 | 3 | 186 | 3.2 | 3.2 | 0.00 | 0.00 | 0.00 | 53 | 1018.9 |
| 20260502071458 | -1 | 200 | 3.2 | 3.2 | 0.00 | 0.00 | 0.00 | 52 | 1019.2 |
| 20260502070956 | -1 | 173 | 8.0 | 12.9 | 0.00 | 0.00 | 0.00 | 53 | 1019.5 |
| 20260502070454 | -1 | 154 | 3.2 | 3.2 | 0.00 | 0.00 | 0.00 | 54 | 1019.2 |
| 20260502065952 | -2 | 194 | 4.8 | 8.0 | 0.00 | 0.00 | 0.00 | 56 | 1019.2 |
| 20260502065450 | -2 | 132 | 0.0 | 0.0 | 0.00 | 0.00 | 0.00 | 59 | 1019.5 |
| 20260502064948 | -3 | 139 | 3.2 | 3.2 | 0.00 | 0.00 | 0.00 | 60 | 1019.5 |
| 20260502064446 | -3 | 217 | 0.0 | 0.0 | 0.00 | 0.00 | 0.00 | 60 | 1019.2 |
| 20260502063942 | -3 | 255 | 0.0 | 0.0 | 0.00 | 0.00 | 0.00 | 61 | 1019.5 |
| 20260502063441 | -3 | 197 | 3.2 | 3.2 | 0.00 | 0.00 | 0.00 | 62 | 1019.5 |
| 20260502062938 | -3 | 281 | 0.0 | 0.0 | 0.00 | 0.00 | 0.00 | 64 | 1019.2 |
| 20260502062435 | -3 | 53 | 0.0 | 0.0 | 0.00 | 0.00 | 0.00 | 63 | 1019.2 |
| 20260502061934 | -3 | 337 | 0.0 | 0.0 | 0.00 | 0.00 | 0.00 | 64 | 1019.2 |
| 20260502061431 | -3 | 1 | 0.0 | 0.0 | 0.00 | 0.00 | 0.00 | 63 | 1019.2 |
| 20260502060927 | -3 | 53 | 0.0 | 0.0 | 0.00 | 0.00 | 0.00 | 63 | 1019.2 |
| 20260502060422 | -3 | 299 | 0.0 | 0.0 | 0.00 | 0.00 | 0.00 | 63 | 1019.2 |
| 20260502055919 | -3 | 319 | 0.0 | 0.0 | 0.00 | 0.00 | 0.00 | 63 | 1019.5 |
| 20260502055417 | -3 | 320 | 0.0 | 0.0 | 0.00 | 0.00 | 0.00 | 63 | 1019.2 |
| 20260502054917 | -3 | 320 | 0.0 | 0.0 | 0.00 | 0.00 | 0.00 | 63 | 1019.2 |
| 20260502054414 | -3 | 314 | 0.0 | 0.0 | 0.00 | 0.00 | 0.00 | 63 | 1019.2 |
| 20260502053912 | -3 | 30 | 0.0 | 0.0 | 0.00 | 0.00 | 0.00 | 62 | 1019.2 |
| 20260502053409 | -3 | 61 | 0.0 | 0.0 | 0.00 | 0.00 | 0.00 | 61 | 1019.2 |
| 20260502052906 | -3 | 75 | 0.0 | 0.0 | 0.00 | 0.00 | 0.00 | 60 | 1019.5 |
| 20260502052404 | -3 | 99 | 0.0 | 0.0 | 0.00 | 0.00 | 0.00 | 60 | 1019.5 |
| 20260502051901 | -3 | 128 | 0.0 | 0.0 | 0.00 | 0.00 | 0.00 | 62 | 1019.5 |
| 20260502051400 | -4 | 228 | 1.6 | 3.2 | 0.00 | 0.00 | 0.00 | 62 | 1019.5 |
| 20260502050856 | -4 | 320 | 0.0 | 0.0 | 0.00 | 0.00 | 0.00 | 63 | 1019.5 |
| 20260502050353 | -4 | 326 | 0.0 | 0.0 | 0.00 | 0.00 | 0.00 | 64 | 1019.5 |
| 20260502045850 | -3 | 239 | 0.0 | 0.0 | 0.00 | 0.00 | 0.00 | 63 | 1019.5 |
| 20260502045346 | -3 | 327 | 0.0 | 0.0 | 0.00 | 0.00 | 0.00 | 63 | 1019.9 |
| 20260502044844 | -3 | 29 | 0.0 | 0.0 | 0.00 | 0.00 | 0.00 | 63 | 1019.5 |
| 20260502044339 | -3 | 29 | 0.0 | 0.0 | 0.00 | 0.00 | 0.00 | 63 | 1019.5 |
| 20260502043837 | -3 | 91 | 0.0 | 0.0 | 0.00 | 0.00 | 0.00 | 62 | 1019.5 |
| 20260502043335 | -3 | 63 | 0.0 | 0.0 | 0.00 | 0.00 | 0.00 | 63 | 1019.5 |
| 20260502042834 | -2 | 79 | 0.0 | 0.0 | 0.00 | 0.00 | 0.00 | 62 | 1019.9 |
| 20260502042332 | -2 | 52 | 0.0 | 0.0 | 0.00 | 0.00 | 0.00 | 61 | 1019.9 |
| 20260502041829 | -2 | 262 | 0.0 | 0.0 | 0.00 | 0.00 | 0.00 | 61 | 1019.9 |
| 20260502041326 | -2 | 233 | 0.0 | 0.0 | 0.00 | 0.00 | 0.00 | 62 | 1019.9 |
| 20260502040823 | -2 | 218 | 0.0 | 0.0 | 0.00 | 0.00 | 0.00 | 63 | 1020.2 |
| 20260502040320 | -2 | 217 | 0.0 | 0.0 | 0.00 | 0.00 | 0.00 | 63 | 1019.9 |
| 20260502035816 | -2 | 267 | 0.0 | 0.0 | 0.00 | 0.00 | 0.00 | 62 | 1019.9 |
| 20260502035313 | -2 | 69 | 0.0 | 0.0 | 0.00 | 0.00 | 0.00 | 61 | 1020.2 |
| 20260502034810 | -2 | 338 | 0.0 | 0.0 | 0.00 | 0.00 | 0.00 | 60 | 1019.9 |
| 20260502034308 | -2 | 64 | 1.6 | 3.2 | 0.00 | 0.00 | 0.00 | 59 | 1019.9 |
| 20260502033806 | -2 | 42 | 0.0 | 0.0 | 0.00 | 0.00 | 0.00 | 59 | 1019.9 |
| 20260502033303 | -2 | 45 | 0.0 | 0.0 | 0.00 | 0.00 | 0.00 | 59 | 1019.9 |
| 20260502032800 | -2 | 114 | 0.0 | 0.0 | 0.00 | 0.00 | 0.00 | 58 | 1020.2 |
| 20260502032256 | -2 | 99 | 0.0 | 0.0 | 0.00 | 0.00 | 0.00 | 60 | 1019.9 |
| 20260502031754 | -2 | 21 | 0.0 | 0.0 | 0.00 | 0.00 | 0.00 | 60 | 1019.9 |
| 20260502031252 | -2 | 91 | 0.0 | 0.0 | 0.00 | 0.00 | 0.00 | 61 | 1019.9 |
| 20260502030750 | -2 | 106 | 1.6 | 3.2 | 0.00 | 0.00 | 0.00 | 59 | 1019.9 |
| 20260502030248 | -2 | 76 | 1.6 | 3.2 | 0.00 | 0.00 | 0.00 | 57 | 1019.9 |
| 20260502025745 | -2 | 61 | 3.2 | 3.2 | 0.00 | 0.00 | 0.00 | 57 | 1019.9 |
| 20260502025243 | -2 | 50 | 1.6 | 3.2 | 0.00 | 0.00 | 0.00 | 57 | 1019.9 |
| 20260502024740 | -2 | 68 | 3.2 | 3.2 | 0.00 | 0.00 | 0.00 | 57 | 1019.9 |
| 20260502024238 | -2 | 52 | 3.2 | 3.2 | 0.00 | 0.00 | 0.00 | 57 | 1019.9 |
| 20260502023736 | -2 | 76 | 3.2 | 3.2 | 0.00 | 0.00 | 0.00 | 57 | 1019.9 |
| 20260502023233 | -2 | 56 | 4.8 | 8.0 | 0.00 | 0.00 | 0.00 | 58 | 1019.9 |
| 20260502022731 | -2 | 75 | 3.2 | 3.2 | 0.00 | 0.00 | 0.00 | 59 | 1019.9 |
| 20260502022227 | -2 | 57 | 0.0 | 3.2 | 0.00 | 0.00 | 0.00 | 59 | 1019.9 |